Ana Sayfa
METAR-TAF:

METAR-TAF

Havaalanları :

Stennis International Airport

Bay St. Louis, Mississipi, Amerika Birleşik Devletleri

Enlem: 30-22-04N, Boylam: 089-27-17W, yükseklik: 7 m

Güncel hava durumu gözlemi

Rapor saat 22:55 UTC de 34 dakika önce yapıldı.
Rüzgar batıdan 4 kt
Sıcaklık 26°C
Nem 89%
Basınç 1017 hPa
Görüş mesafesi: 11.3 km
1300 ft yükseklikte parçalı çok bulutlu

METAR: KHSA 212255Z 26004KT 7SM BKN013 26/24 A3002

Saat: 18:29 (23:29 UTC)


TAF: eksik

4.000'den fazla havaalanı için hava durumu gözlemleri ve tahminleri (METAR ve TAF raporları).

Kullanılabilir istasyonlar harita üzerinde sarı ve kırmızı noktalarla gösterilir.

İstasyonun adını görmek için fareyi noktanın üzerinde gezdirin.

Sonrasında hava gözlem ve tahminlerini görmek için tıklayın.

Haritayı değiştirmek için: yaklaştırmak için siyah artı işaretli yeşil düğmeye ve uzaklaştırmak için de eksi işaretli düğmeye hızla tıklayın; bitişik haritalar için yeşil okları kullanın.


METAR-TAF: